Temp
7 7 7 7 7 7 8 8 8 8 8 8 8 8 8 8 8 8 8 8 8 8 8 8 8 8 8 8 8 8 9 9 9 9 9 10 11 11 12 12 12 12 12 13 14 14 13 14 14 14 15 15 15 16 17 17 18 19 20 20 19 19 19 20 21 22 23 24 23 22 22 23 24 23 22 21 22 23 22 22 21 18 17 17 17 17 16 17
7 7 7 7 7 7 7 8 8 8 8 8 8 8 8 8 8 8 8 8 8 8 8 8 8 8 8 8 8 8 9 9 9 9 10 11 11 12 12 12 12 13 13 14 14 13 13 13 12 13 15 16 16 16 17 18 18 19 19 19 19 20 20 21 22 22 23 23 23 22 21 23 23 22 22 23 23 22 23 23 21 21 21 17 15 16 16 16
7 7 7 7 8 8 8 8 8 8 8 8 8 8 8 8 8 8 8 8 8 8 8 8 8 8 8 8 8 9 9 9 9 10 11 11 11 12 12 12 13 14 14 14 14 13 13 13 12 13 15 16 16 16 17 18 18 18 18 19 19 20 21 21 22 23 22 22 22 22 21 23 23 22 23 23 23 22 23 24 23 24 24 20 16 15 15 16
7 7 7 7 7 8 8 8 8 8 8 8 8 8 8 8 8 8 8 8 8 8 8 8 8 8 8 8 9 9 9 9 10 11 11 11 11 12 12 13 13 14 14 14 14 13 13 13 12 13 15 15 16 16 16 17 18 17 18 19 19 20 21 21 22 22 21 20 21 22 22 23 22 22 23 23 23 23 23 24 24 24 24 20 16 15 15 15
7 7 7 7 7 7 7 8 8 8 8 8 8 8 8 8 8 8 8 8 8 8 8 8 8 8 8 8 9 9 9 9 10 11 11 11 12 12 12 13 13 14 14 14 13 13 13 12 12 13 14 15 16 16 16 17 18 18 18 19 20 20 21 21 21 21 21 21 21 22 22 22 22 22 23 23 23 24 24 24 24 24 23 20 17 15 15 15
7 7 7 7 7 7 7 7 8 8 8 8 8 8 8 8 8 8 8 9 8 8 8 8 8 8 8 8 9 9 8 9 10 10 11 11 12 12 12 13 13 14 14 15 13 12 13 12 13 13 14 15 15 15 16 15 16 17 18 18 19 18 19 20 19 20 20 21 22 22 21 21 22 23 22 22 23 24 24 22 23 22 19 18 17 16 16 16
7 7 7 7 6 7 7 7 8 8 8 8 8 8 8 8 8 8 8 9 8 9 8 8 8 8 8 8 9 8 7 8 10 10 11 11 12 12 12 13 13 14 14 13 12 12 12 12 13 12 13 14 13 14 14 14 16 16 17 18 17 18 18 18 18 19 19 21 21 20 20 21 23 23 21 22 24 24 22 21 21 20 16 16 17 16 16 16
7 7 7 7 7 7 7 7 7 7 7 8 8 8 8 8 8 8 8 8 8 8 8 8 8 8 8 8 8 7 7 9 10 10 11 11 12 12 13 13 13 13 13 12 11 12 12 12 12 11 13 14 12 14 14 15 16 15 16 16 16 17 17 17 17 18 19 20 20 19 20 22 22 21 21 22 24 23 21 20 20 19 17 17 18 17 16 16
7 6 6 6 6 7 7 7 7 7 7 7 8 8 8 8 8 8 8 8 8 8 8 8 8 8 8 8 7 8 9 10 10 10 11 11 12 12 12 13 13 13 13 12 11 12 12 12 12 12 12 12 12 13 13 15 15 14 14 14 15 16 16 17 18 19 19 19 20 20 21 21 20 20 21 23 24 22 21 21 19 19 19 18 17 17 16 17
6 6 6 6 6 6 6 7 7 7 7 7 8 8 8 8 8 8 8 8 8 8 8 8 8 8 8 7 6 8 10 10 10 11 11 11 12 12 12 12 12 13 12 12 12 11 12 11 11 11 11 12 12 13 13 15 15 13 13 14 15 16 16 17 18 19 19 19 20 20 21 21 19 19 22 24 22 20 21 22 20 20 21 19 17 17 16 16
6 6 6 6 6 6 6 6 7 7 7 7 8 8 8 8 8 8 8 8 8 8 8 8 8 8 8 7 6 9 10 10 11 11 11 11 11 12 12 12 12 13 13 12 12 12 11 11 10 11 12 13 13 13 14 14 14 14 14 15 16 17 17 17 18 19 19 20 19 20 21 20 19 20 22 23 22 21 22 22 21 21 21 19 17 17 16 16
6 6 6 6 6 6 6 6 6 7 7 7 8 8 8 8 8 8 9 9 9 8 8 8 8 8 8 7 7 9 10 10 11 11 11 11 11 12 12 12 12 12 12 12 12 13 12 11 11 12 12 13 13 13 14 14 14 14 14 16 17 18 18 17 17 18 19 20 19 19 20 20 20 20 22 23 22 21 22 22 22 22 21 18 17 17 17 16
6 6 6 6 6 6 6 6 6 7 7 7 7 8 8 8 9 9 9 9 9 9 8 8 8 8 8 8 9 10 10 10 11 11 11 11 11 12 12 12 12 12 12 12 13 13 13 12 12 13 12 12 13 13 14 14 14 14 14 16 17 17 18 17 16 17 19 20 20 20 20 20 21 21 22 21 20 21 22 23 23 22 21 19 17 17 17 16
6 6 6 6 6 6 6 6 6 6 7 7 7 8 8 9 9 9 9 9 9 8 8 8 8 8 7 9 11 11 10 11 11 11 11 11 11 12 12 12 12 12 12 13 13 13 13 13 12 12 12 12 13 13 14 14 14 14 15 15 15 16 18 17 16 17 19 19 20 20 19 19 20 21 22 20 18 20 21 22 22 21 21 20 18 17 17 17
6 6 6 6 6 6 6 7 7 6 7 7 8 8 9 9 9 9 9 9 9 8 8 8 8 8 8 10 11 11 10 10 11 11 10 10 10 11 11 12 12 12 13 13 13 13 13 13 13 12 12 12 12 13 14 14 14 13 15 15 13 15 17 17 15 15 18 18 19 20 18 18 20 20 20 18 19 20 20 21 21 20 20 19 19 18 18 17
6 6 6 6 6 6 6 7 6 7 8 8 8 9 9 10 10 10 9 9 9 9 9 8 8 7 8 9 10 10 10 9 10 10 10 10 10 10 11 11 12 12 13 13 13 14 14 14 12 11 12 12 12 13 14 14 14 13 14 15 13 14 15 16 16 14 15 17 18 18 17 18 18 18 18 18 19 19 19 20 20 20 20 19 19 19 20 20
6 6 6 6 6 6 7 7 6 7 8 8 9 9 10 10 10 10 9 9 9 9 9 8 7 7 9 10 10 9 8 9 10 10 10 10 10 10 10 11 10 11 12 13 14 13 13 12 11 11 12 12 11 13 13 13 13 13 13 14 12 13 14 15 16 14 14 16 16 16 15 16 17 17 17 17 18 17 18 19 19 19 19 19 19 19 20 20
6 6 6 6 6 6 6 6 6 7 8 9 9 9 10 10 10 10 10 10 10 9 9 8 8 7 9 10 8 8 8 9 10 10 10 11 11 10 10 10 9 10 11 12 12 12 12 11 12 12 12 12 11 12 13 12 12 12 13 13 12 12 13 14 15 14 14 15 15 15 15 15 16 17 17 17 17 16 17 17 18 18 18 19 18 18 19 19
6 6 6 6 6 6 6 6 7 8 8 9 9 10 10 10 10 10 9 9 8 8 8 8 7 7 8 8 8 8 9 9 10 10 10 10 10 11 10 9 9 10 11 11 11 11 11 11 11 11 11 11 10 11 11 11 11 11 12 12 11 12 13 13 14 14 13 14 15 15 15 14 15 16 17 18 16 16 16 17 18 19 19 19 18 18 18 18
6 6 6 6 6 6 7 6 7 8 8 9 9 9 9 7 8 9 8 7 7 6 7 7 6 7 7 8 8 8 9 10 10 10 10 10 10 10 10 9 10 10 10 10 10 10 10 11 10 10 9 10 9 10 11 11 11 12 12 12 11 12 13 13 14 14 13 14 15 15 14 14 14 16 17 17 16 17 18 17 18 18 18 18 18 18 18 18
6 6 6 6 6 6 7 7 7 7 8 9 8 7 6 5 6 7 6 6 6 5 6 7 6 7 8 8 8 8 8 9 9 9 10 10 10 10 10 9 10 10 8 8 10 10 10 10 9 9 9 9 9 10 11 11 12 12 12 12 12 12 13 13 14 13 13 14 15 15 14 14 14 15 16 16 16 17 17 16 17 17 18 18 18 18 18 18
5 5 6 6 7 7 7 7 7 7 8 8 7 5 5 5 5 5 5 6 7 6 6 7 7 7 8 8 8 7 7 8 9 9 10 10 10 9 9 9 9 9 8 9 10 10 10 9 9 9 8 9 9 10 11 11 11 12 11 12 12 11 12 13 13 13 13 14 15 14 13 13 14 14 15 16 16 16 16 15 16 17 18 18 18 18 18 18
5 5 6 7 7 7 7 7 7 8 8 7 5 4 5 5 6 6 5 6 7 7 7 8 8 8 8 9 8 8 8 8 8 9 10 10 9 9 9 8 8 8 8 10 10 9 9 9 9 9 9 10 10 10 11 12 11 11 11 12 12 11 12 13 13 13 13 13 13 14 13 13 14 14 16 15 14 15 15 16 16 16 17 18 17 17 17 18
5 5 6 7 7 8 8 8 8 8 7 6 5 5 5 6 6 6 5 5 6 8 8 8 7 7 8 9 8 8 8 7 7 9 9 9 9 9 8 8 8 8 7 8 10 9 9 9 8 9 10 11 11 11 11 12 11 11 11 11 11 12 12 13 12 12 13 13 12 14 15 15 13 14 16 15 14 16 16 16 17 16 16 16 16 16 16 17
5 5 6 7 8 8 8 8 8 7 7 7 6 6 6 6 6 6 6 6 7 9 9 9 8 8 8 9 8 7 7 8 8 9 9 8 8 9 9 8 8 8 7 8 9 8 9 8 8 10 11 11 11 11 10 11 12 11 11 11 11 11 12 12 12 12 13 13 13 13 15 15 13 14 16 14 15 17 16 16 17 16 16 16 16 16 16 16
5 6 7 8 8 8 8 7 7 7 7 6 6 6 6 6 6 6 7 7 8 8 8 9 9 9 9 9 7 6 7 9 10 9 9 9 8 8 9 8 8 8 7 8 9 8 9 8 8 10 11 11 11 11 10 11 12 11 11 10 10 11 12 12 12 12 13 13 12 13 14 13 13 15 15 14 15 17 16 15 16 15 16 16 16 16 16 16
5 6 7 7 8 8 8 6 6 6 6 6 6 6 6 6 6 6 7 8 7 8 8 9 9 9 10 8 7 7 8 8 10 9 9 8 8 8 8 7 8 7 6 7 8 8 9 9 9 10 11 11 11 10 10 10 11 12 11 10 11 12 12 12 12 13 13 13 13 13 13 12 12 14 14 14 16 17 15 15 15 15 15 15 15 15 15 15
6 6 7 7 7 7 7 6 6 5 5 6 6 6 6 7 6 7 8 7 7 8 8 8 10 10 9 8 7 8 8 8 9 9 9 8 8 9 9 7 7 7 6 7 9 8 8 9 9 9 10 10 10 10 9 10 11 11 10 10 11 12 12 12 12 13 12 12 13 12 12 12 12 14 14 14 15 16 15 15 15 15 15 15 15 15 15 15
6 6 7 7 7 7 7 6 5 5 5 6 6 7 7 6 6 8 8 7 7 8 8 8 10 9 7 7 8 7 8 8 7 8 9 9 9 9 8 7 8 8 7 8 8 8 8 8 8 9 9 9 9 10 9 10 11 11 10 11 11 11 11 12 12 13 13 12 12 12 12 12 12 13 14 15 15 14 14 14 14 14 14 14 14 14 14 14
6 6 6 7 7 7 7 7 6 6 6 7 7 7 7 6 7 8 7 6 7 8 8 8 8 7 6 7 8 7 7 8 7 7 8 8 9 9 7 6 8 8 8 8 8 8 8 8 8 9 9 9 9 9 9 9 9 10 11 12 13 12 12 12 11 12 12 11 11 11 11 12 12 13 14 14 14 14 13 14 14 14 13 13 13 13 13 13
6 6 6 7 7 6 6 7 7 7 7 7 7 7 7 7 7 7 6 6 7 7 7 7 6 6 5 5 6 6 7 8 7 6 7 7 7 8 7 6 7 8 8 8 8 9 9 9 9 9 8 8 9 9 10 9 9 10 12 12 12 11 11 12 11 11 11 11 11 11 11 12 12 14 14 14 14 13 13 13 13 13 12 12 12 12 12 12
6 6 6 7 7 6 6 6 7 7 7 8 7 6 8 9 6 4 5 6 6 6 6 6 6 6 5 5 5 5 6 7 7 6 6 6 6 6 6 5 5 7 8 7 7 9 9 8 8 9 9 8 9 10 11 11 10 10 12 12 11 10 10 10 10 10 10 10 11 10 10 11 12 14 15 14 14 13 13 13 12 12 12 11 12 12 12 12
7 7 7 7 7 7 6 6 7 8 8 8 7 7 9 8 5 3 4 5 5 5 5 5 5 5 5 6 5 5 5 6 6 6 6 6 6 5 6 6 5 6 7 6 6 8 9 9 8 9 9 8 8 9 10 10 10 10 10 11 10 9 9 9 8 8 10 10 10 10 10 11 12 13 13 13 14 13 12 12 12 12 11 11 12 12 12 12
7 7 7 7 7 7 7 8 8 9 9 8 9 9 8 6 4 4 4 4 4 4 4 5 5 5 5 5 5 5 6 6 6 6 6 6 6 5 5 6 5 6 6 6 6 6 8 9 8 8 8 8 7 7 8 8 9 9 9 10 10 9 9 9 9 9 10 10 10 10 11 12 13 13 12 12 12 12 12 12 11 11 11 11 11 11 11 11
8 8 8 8 8 8 8 9 9 9 9 8 7 7 6 4 2 3 4 4 4 4 4 4 5 6 6 5 5 5 6 6 6 6 6 5 5 5 5 5 5 5 6 6 6 5 6 8 8 7 7 7 7 7 7 8 9 9 9 9 10 8 9 9 9 9 9 9 9 10 11 12 13 13 12 11 11 12 12 11 11 11 11 11 11 11 11 11
8 8 8 8 9 8 9 9 9 9 9 8 6 5 4 3 3 3 4 4 4 4 4 5 5 5 5 5 5 5 5 6 5 6 6 5 5 5 5 6 5 5 5 5 5 5 6 8 8 8 7 7 7 7 7 7 9 10 9 9 8 7 8 9 9 9 9 9 10 10 11 12 12 13 13 12 12 12 10 10 10 10 10 10 10 10 10 10
9 8 8 8 8 9 9 9 9 9 7 7 7 4 2 3 4 4 4 4 4 4 4 5 5 4 4 4 4 4 5 6 5 5 5 5 5 5 5 6 6 5 4 5 6 5 5 7 8 7 8 8 6 7 8 7 8 9 9 8 7 7 8 9 9 9 8 8 9 10 10 11 11 12 12 11 11 10 9 10 10 10 10 10 10 10 10 10
8 8 8 8 8 9 9 10 10 8 7 6 5 3 2 3 3 3 4 4 3 4 4 4 5 4 4 4 4 4 4 5 5 5 5 5 5 6 5 5 6 5 4 4 6 6 5 7 8 7 7 8 7 8 9 8 8 8 8 7 8 8 9 9 9 8 8 8 8 9 9 10 11 11 11 11 9 8 8 9 9 9 9 9 9 9 9 9
8 9 8 8 9 9 9 10 8 6 6 6 4 2 2 3 3 2 3 3 3 4 4 4 4 4 4 4 4 4 4 4 4 4 5 5 5 6 5 5 5 5 5 5 6 5 4 6 8 8 7 7 7 8 7 7 8 8 8 7 8 8 8 8 8 8 8 7 7 8 9 10 11 11 10 9 8 7 8 8 9 9 9 9 9 9 9 9
7 8 9 8 9 9 9 10 8 5 5 4 2 2 1 2 4 3 2 3 4 5 4 4 4 4 4 4 3 4 4 4 4 4 5 5 5 5 5 4 4 4 5 6 5 4 4 5 7 8 7 7 7 7 6 6 7 7 7 7 7 7 7 8 8 7 7 7 7 7 7 9 10 10 9 8 7 7 8 8 8 8 8 8 8 8 8 8
6 8 9 8 9 9 9 9 5 2 3 2 1 2 1 3 5 4 3 3 4 4 4 4 4 4 4 4 4 4 4 4 4 4 4 5 5 5 5 4 4 4 5 6 6 5 5 4 5 6 7 7 7 6 4 5 6 7 6 6 6 6 7 7 7 7 6 6 6 6 6 8 10 9 8 7 7 8 8 7 8 8 8 8 8 8 8 8
6 8 8 7 9 9 9 7 1 -2 2 3 1 2 2 4 5 4 4 4 4 5 4 4 5 4 4 4 4 4 4 5 5 4 4 5 5 5 5 4 4 4 5 6 5 5 4 4 5 6 6 6 6 5 3 3 6 7 6 6 6 5 5 6 6 6 5 5 6 5 5 7 8 8 7 7 7 7 8 7 7 7 8 8 8 8 8 7
7 8 8 7 8 9 8 7 2 1 3 2 -0 1 2 3 4 4 4 4 5 5 5 5 4 4 4 4 4 4 4 4 4 5 5 5 5 5 5 5 5 5 5 5 5 5 4 4 5 6 6 5 6 5 4 4 6 7 6 6 6 5 5 5 5 5 5 5 5 5 5 7 8 7 7 7 7 7 8 8 7 7 8 8 8 8 7 7
5 5 6 7 9 10 9 7 5 4 3 1 2 3 3 3 4 5 4 4 4 4 5 5 4 4 4 4 4 4 4 4 4 5 5 4 5 5 5 5 5 5 5 5 5 6 5 4 5 6 6 7 7 6 6 6 5 6 6 5 5 5 5 5 5 5 5 5 5 5 5 8 8 8 7 7 7 7 8 8 7 7 7 7 7 7 7 7
4 5 5 6 7 7 5 3 4 5 3 3 4 4 3 4 4 4 4 4 4 4 4 4 4 4 5 4 4 5 5 5 4 5 5 5 5 6 5 5 5 4 5 5 5 6 5 4 4 6 6 6 7 6 6 5 5 5 5 5 5 5 5 5 5 5 4 5 5 5 6 7 8 7 7 7 7 7 7 7 7 7 7 7 7 7 7 7
7 7 7 6 4 3 0 -1 2 5 4 4 4 3 3 5 5 4 4 4 4 4 4 4 4 4 4 4 4 4 5 5 4 4 4 4 5 5 5 5 5 5 5 5 6 5 4 3 3 5 5 5 5 6 5 5 5 4 5 4 5 5 5 5 5 4 4 4 4 5 5 6 6 7 6 6 6 7 7 7 7 7 7 7 7 7 7 7
6 7 5 6 6 4 3 1 2 4 3 3 4 3 3 4 4 5 5 4 4 4 4 4 4 4 4 4 4 4 4 4 4 4 4 4 5 5 5 5 5 5 5 5 5 5 4 3 2 3 5 5 5 5 5 5 4 4 4 4 4 4 4 4 4 4 4 4 3 5 6 5 6 6 6 6 6 6 6 6 7 7 7 7 6 6 6 6
5 4 1 2 5 5 4 4 3 3 2 2 3 3 3 4 4 4 5 4 4 4 4 4 4 3 3 3 3 4 4 4 4 4 4 4 4 3 4 5 5 4 4 4 4 4 4 4 2 2 4 4 4 4 5 4 4 4 4 4 4 4 4 4 4 4 4 4 4 6 6 5 5 5 5 6 6 6 6 7 6 6 6 6 6 6 6 6
3 3 -0 -0 3 3 2 2 2 2 2 2 3 3 3 4 3 3 3 4 4 4 4 4 3 3 3 3 3 3 3 3 3 3 3 3 3 3 3 4 4 4 4 4 3 3 3 4 3 3 3 3 4 5 5 4 4 4 4 4 4 3 3 3 3 4 4 4 4 5 4 4 5 5 6 6 6 6 6 6 6 6 6 6 6 5 5 5
3 4 3 2 2 1 1 1 3 3 3 2 3 4 3 3 3 3 3 3 4 4 3 4 3 3 3 3 3 3 3 3 3 2 3 2 2 3 3 3 4 4 4 3 3 3 3 4 4 3 3 4 4 5 5 5 4 4 4 5 4 3 3 3 3 3 3 4 4 3 3 3 5 6 6 6 6 6 6 5 5 5 5 5 5 5 5 4
1 1 2 4 4 1 1 2 3 4 4 3 3 4 3 3 2 2 3 3 3 3 3 3 3 2 2 2 3 3 3 3 2 2 3 2 2 3 3 3 3 3 3 3 3 3 3 4 4 4 3 3 4 5 5 5 4 4 4 5 5 5 5 5 5 5 4 5 5 4 3 4 5 5 5 5 6 5 5 4 4 5 5 5 5 4 4 4
1 0 1 4 4 2 1 3 2 3 4 3 3 3 3 3 2 2 3 3 2 3 3 2 2 2 2 2 2 3 3 2 2 2 2 2 2 2 3 3 3 2 2 2 3 3 3 3 4 4 4 4 5 5 4 4 4 5 5 6 7 6 6 6 6 5 5 5 5 4 4 5 5 5 4 5 5 4 4 4 4 4 5 5 4 4 4 4
Height
853 852 851 850 849 847 846 845 844 843 842 840 839 837 836 834 832 831 830 828 827 825 824 822 820 819 817 815 813 811 808 806 803 802 801 800 798 797 795 794 793 792 791 789 788 787 786 785 784 783 783 783 784 784 782 781 781 783 787 794 795 795 795 789 787 785 781 779 780 779 778 778 777 777 775 775 776 776 778 778 777 778 777 777 775 774 775 775
853 852 851 850 849 848 846 845 844 843 842 840 839 837 836 834 832 831 829 828 826 825 824 822 820 818 817 815 813 810 808 805 803 802 801 800 798 797 795 794 793 791 790 788 787 787 786 786 785 784 783 783 784 783 783 781 780 783 788 791 789 787 784 779 778 777 777 778 778 779 779 778 778 778 775 777 779 779 779 778 778 777 776 776 775 775 776 776
853 852 851 850 849 847 846 845 844 843 841 840 838 837 835 834 832 831 829 828 826 824 823 821 820 818 816 814 812 810 807 804 803 801 800 799 798 796 795 794 792 790 788 787 786 786 786 786 785 784 783 784 785 784 784 782 782 784 786 789 785 781 779 776 775 774 775 777 777 778 779 777 777 777 776 779 781 781 780 777 777 776 773 775 777 776 776 778
854 853 851 850 848 847 846 845 843 842 841 840 838 837 835 834 832 831 829 828 826 824 823 821 819 817 816 813 811 809 806 805 803 801 800 799 798 796 794 793 792 789 788 786 785 786 785 785 785 784 784 785 785 785 786 783 783 785 785 786 782 778 778 775 773 773 775 777 778 778 778 778 777 776 777 779 782 782 779 775 775 774 771 774 777 777 777 778
854 853 851 850 848 847 845 844 843 842 841 839 838 836 835 834 832 831 829 827 826 824 822 821 819 817 815 813 811 809 807 805 802 801 800 799 797 796 795 793 792 790 788 786 785 786 785 785 785 785 784 785 785 785 787 783 782 785 783 781 779 777 778 775 773 774 775 776 777 778 778 777 776 776 777 779 783 781 775 773 772 771 772 774 775 776 778 778
855 853 851 849 848 846 845 844 843 841 840 839 837 836 835 833 832 830 829 827 825 823 822 820 818 817 815 813 811 808 809 805 801 801 800 799 797 796 795 793 792 790 788 786 785 786 786 786 786 788 787 786 788 787 788 786 784 786 784 780 780 780 780 777 776 776 776 776 776 778 777 777 776 777 778 778 778 774 771 771 770 769 771 772 773 775 777 777
855 853 851 850 848 846 845 844 842 841 839 838 837 835 834 833 831 830 828 827 825 823 821 820 818 817 814 813 810 809 812 808 802 802 800 799 798 796 795 793 792 789 788 786 786 787 788 788 788 792 790 787 791 789 789 788 785 787 786 783 783 781 781 781 780 778 777 777 777 778 778 777 777 778 779 778 773 770 770 770 769 769 770 772 774 775 775 775
855 853 852 850 848 846 845 843 842 840 839 837 836 835 833 832 831 829 828 826 824 822 821 819 818 816 814 812 811 811 811 807 803 802 800 799 797 796 794 793 792 790 789 788 789 788 788 791 792 793 792 790 792 790 790 788 787 791 789 788 787 783 782 781 781 779 777 777 777 779 779 777 778 779 780 775 770 770 771 770 770 770 771 772 773 774 775 775
855 853 851 849 848 846 845 843 841 840 838 837 835 834 833 831 830 828 827 825 823 822 820 819 817 816 814 813 813 812 809 806 804 802 800 799 797 796 794 793 792 791 790 790 790 789 789 793 793 793 794 795 793 791 790 788 790 794 792 791 789 785 784 781 780 779 778 778 777 778 779 778 779 780 779 773 769 770 771 770 771 771 772 773 774 775 775 776
855 853 851 849 847 845 844 842 841 839 837 836 834 833 832 830 829 827 826 824 823 821 820 819 817 816 814 814 814 813 808 805 804 802 800 798 797 796 794 793 793 792 791 791 791 790 791 793 793 793 794 795 793 792 791 790 791 793 793 791 788 786 785 781 779 778 778 777 776 778 779 779 780 782 780 771 769 771 770 771 772 772 772 773 774 775 776 776
855 852 851 848 846 845 843 841 840 838 837 835 834 832 831 829 828 826 825 823 822 821 819 818 817 815 814 815 816 813 807 805 804 802 800 798 797 796 795 795 793 793 792 792 792 792 792 792 792 792 793 793 792 793 791 790 790 790 790 788 786 784 783 782 780 778 778 777 777 778 779 780 781 783 780 771 769 771 771 772 772 772 772 773 774 775 776 775
854 852 850 848 846 844 842 840 839 838 836 834 833 831 830 828 827 826 824 822 821 820 819 818 817 816 814 814 815 812 807 805 804 802 800 798 797 796 796 795 794 793 793 793 792 792 792 791 791 791 793 793 793 793 791 789 789 789 789 788 785 782 781 783 783 780 779 778 776 778 783 783 782 782 776 770 770 771 771 772 772 773 773 774 775 775 775 774
854 852 850 847 845 843 841 839 838 837 835 833 832 830 829 828 826 825 823 822 821 820 819 818 817 815 815 814 812 809 807 806 804 802 800 798 797 796 796 795 795 794 793 793 793 792 792 791 791 791 792 792 793 792 789 789 788 788 789 789 788 786 785 785 785 783 780 779 775 779 790 786 780 779 773 772 774 773 772 771 771 772 773 774 775 775 775 774
854 852 850 847 845 843 841 839 837 836 834 833 831 830 829 827 826 824 823 822 820 819 818 818 817 815 816 813 809 808 807 805 803 801 800 798 797 796 795 795 794 794 794 793 793 792 792 791 791 791 792 794 794 791 791 791 790 790 790 793 797 794 788 785 787 785 780 780 774 779 795 790 780 777 774 776 777 776 775 773 772 774 774 775 776 776 776 775
854 852 849 847 845 842 840 839 837 836 834 832 831 829 828 826 825 824 823 821 819 819 818 817 816 816 816 812 809 809 807 804 803 801 801 800 798 796 795 794 794 794 793 793 793 792 792 791 792 794 794 793 793 793 794 792 793 794 792 797 805 801 793 788 790 791 785 783 777 781 794 790 782 780 778 780 778 777 779 776 775 776 777 777 777 777 777 776
854 852 849 847 845 842 841 839 837 836 833 832 830 829 827 826 825 824 823 820 819 818 818 818 817 817 818 815 811 808 807 805 804 803 802 800 799 798 796 794 794 793 793 793 793 793 792 792 795 798 797 795 797 796 796 797 798 800 797 799 807 804 799 793 792 796 793 788 784 787 795 792 786 784 782 781 780 780 781 779 778 777 777 778 778 778 776 776
854 852 850 847 845 843 841 839 838 836 833 832 830 828 827 826 826 825 822 820 819 819 818 818 817 817 816 814 813 811 810 809 806 804 802 800 800 799 797 795 794 793 793 792 793 793 793 795 798 800 799 800 802 798 799 804 804 804 802 802 810 810 805 800 795 797 796 794 794 795 799 798 793 787 783 782 782 784 784 782 780 778 778 778 778 778 777 776
855 853 850 848 845 843 842 840 838 836 834 831 829 828 828 827 826 825 823 821 819 818 818 818 817 820 820 815 817 817 814 810 807 805 802 800 799 798 797 796 795 794 793 794 795 796 796 799 800 800 802 803 805 802 803 811 811 809 807 806 813 813 809 807 802 800 799 798 800 799 799 800 797 790 785 782 783 786 787 785 782 779 778 777 778 779 778 777
855 853 851 849 846 844 843 841 839 837 834 830 829 828 827 827 826 825 825 823 822 823 827 827 826 831 831 823 821 819 814 811 809 806 803 801 799 799 798 797 797 795 796 799 800 801 801 802 803 806 810 811 813 812 810 815 814 813 813 813 817 813 809 810 805 804 804 801 800 800 801 803 800 796 789 784 784 787 787 786 782 779 778 777 777 778 778 778
856 854 852 849 847 846 844 842 841 839 835 832 829 828 830 834 832 830 829 827 829 833 835 835 834 835 832 825 822 819 814 811 810 807 804 802 801 799 798 798 799 798 802 805 804 805 804 808 814 817 819 818 818 818 814 815 813 812 814 815 819 815 810 809 805 804 805 802 801 801 804 806 803 798 792 789 789 786 784 785 784 781 779 779 778 778 777 777
856 854 852 850 848 846 845 844 843 840 838 835 830 832 840 845 842 841 840 834 834 836 835 834 834 833 830 826 824 821 818 814 810 808 806 804 802 801 802 802 802 805 811 811 807 806 806 814 822 822 820 819 819 817 813 813 813 813 815 814 817 817 812 808 806 805 805 804 803 801 802 803 802 799 794 790 789 787 787 789 788 786 783 781 780 779 778 777
856 854 852 850 848 847 847 845 844 843 841 837 835 839 846 849 847 847 847 842 836 835 834 833 832 831 828 825 824 823 822 818 813 809 807 806 804 805 808 808 809 811 813 810 808 809 812 818 822 820 821 820 819 817 812 813 814 814 816 816 817 819 815 808 806 807 806 806 804 803 805 804 802 800 795 792 792 791 792 792 791 789 785 783 782 781 779 777
856 854 852 851 849 848 847 846 846 844 842 841 842 846 848 848 848 847 848 847 840 834 834 833 832 831 827 825 825 823 823 822 820 814 810 809 808 810 812 812 814 814 814 811 809 815 820 821 820 820 819 816 815 817 813 812 816 817 817 817 819 820 817 810 808 808 808 809 807 804 806 805 803 800 794 794 796 794 792 791 790 789 788 785 784 784 783 781
856 854 852 850 849 849 848 847 846 845 845 845 846 848 849 849 848 848 848 850 845 836 834 835 834 833 830 827 826 825 824 825 824 818 814 813 812 813 814 816 816 817 821 818 813 819 823 821 820 819 815 812 812 816 814 810 815 821 820 819 819 818 817 815 814 812 808 810 810 804 802 803 807 805 796 796 796 792 791 789 787 788 789 788 786 786 785 784
857 855 853 850 850 849 848 848 847 847 847 847 848 849 849 849 848 848 848 849 846 839 834 834 835 834 832 829 826 827 826 823 823 821 817 816 816 815 816 819 819 820 824 821 818 821 823 823 820 815 812 813 812 816 819 814 814 820 822 822 822 819 817 814 815 814 809 810 811 807 806 807 809 806 800 800 796 791 793 792 789 790 790 789 788 787 786 785
857 855 853 851 850 848 848 849 848 849 848 848 850 849 849 849 847 848 849 848 847 845 839 836 837 836 832 831 828 826 827 823 821 822 820 818 818 817 819 823 822 823 825 822 821 823 824 824 822 816 814 814 814 817 822 817 813 818 822 823 824 820 817 815 814 814 812 813 814 813 814 815 813 804 801 805 799 793 795 795 793 793 791 790 790 789 788 787
858 856 854 853 851 849 849 851 850 849 849 851 850 849 850 848 847 848 845 849 855 852 848 844 841 840 836 836 832 827 834 832 823 822 822 820 819 818 821 826 825 826 829 826 825 827 826 824 822 820 816 815 818 820 823 821 817 819 821 823 822 816 815 816 814 813 814 814 814 815 816 820 819 808 805 806 800 796 798 797 797 795 794 793 792 791 790 789
859 857 856 854 853 851 851 852 852 851 852 852 850 849 849 846 849 848 844 858 867 857 854 852 844 842 841 839 836 834 839 838 830 827 823 822 821 818 822 828 828 830 831 827 827 831 830 827 826 824 821 822 824 825 826 823 819 819 821 822 819 816 817 817 815 814 816 816 816 818 816 820 822 812 807 807 801 802 803 802 802 799 798 798 795 794 793 792
860 859 857 855 854 853 853 853 853 853 853 852 850 849 848 846 848 846 848 865 870 860 858 855 846 847 847 841 838 841 841 839 839 835 827 824 824 821 826 831 829 831 831 828 829 832 830 830 829 826 827 829 827 826 827 824 821 821 822 820 817 819 820 817 816 813 815 821 823 823 819 822 826 815 808 807 805 808 809 807 806 804 803 802 800 799 797 795
861 860 858 857 855 854 854 853 853 854 852 850 850 847 847 847 846 850 865 876 871 864 862 858 855 857 857 851 845 846 845 843 844 840 831 830 828 825 829 831 829 830 831 829 830 832 832 830 829 829 831 831 827 828 828 827 826 821 819 817 813 817 817 818 823 819 821 829 829 828 825 823 825 817 810 811 811 814 814 810 809 807 806 806 804 803 801 799
862 861 860 858 856 855 855 854 852 852 851 849 848 847 846 850 855 867 881 882 873 869 867 865 865 862 863 864 860 855 851 847 846 845 840 837 835 832 833 838 837 831 833 835 833 832 832 830 830 832 834 831 827 826 825 826 827 821 817 815 815 822 821 820 826 825 829 834 829 831 829 826 826 817 809 812 813 815 816 814 814 812 811 811 808 806 803 801
863 862 861 859 858 857 856 855 853 850 849 846 846 846 844 851 871 889 890 880 876 877 876 874 871 868 868 869 867 865 860 854 852 852 852 849 847 847 850 856 854 843 842 848 843 835 833 835 837 834 833 834 829 825 822 822 824 822 819 818 825 838 838 835 840 840 839 837 832 834 832 828 828 816 808 812 813 815 817 817 818 817 816 814 811 808 805 803
864 863 862 860 859 858 857 856 853 849 847 845 845 847 849 860 884 901 896 887 884 883 882 879 875 875 873 868 869 870 865 862 859 856 856 855 855 858 857 859 861 854 851 856 854 844 834 834 838 835 833 837 836 833 830 829 830 829 828 827 831 843 847 850 857 854 844 838 834 836 834 827 822 816 814 816 816 817 817 817 820 820 819 817 813 810 806 802
865 863 862 861 860 858 857 854 852 850 847 845 845 848 858 879 897 900 896 895 892 887 885 883 878 874 873 872 875 874 867 865 865 862 860 859 860 865 863 858 860 860 856 857 860 859 850 843 843 843 841 842 842 843 843 840 837 835 836 834 832 841 847 847 852 850 844 844 839 835 832 825 818 817 818 819 819 819 818 819 820 818 817 815 812 809 806 803
865 864 862 861 859 858 856 854 851 850 847 847 854 863 876 897 911 905 898 896 893 889 886 884 881 876 875 877 878 877 872 867 867 867 867 868 870 873 872 866 866 865 861 861 866 869 865 854 848 850 850 848 846 846 846 843 838 836 838 837 838 847 847 843 848 849 847 850 846 835 827 822 818 815 817 819 818 817 818 820 819 817 816 815 812 811 809 807
865 864 863 861 860 858 855 854 851 849 849 849 860 882 896 903 906 903 897 893 893 893 888 883 882 882 882 882 879 877 874 871 870 869 870 876 876 875 875 871 870 871 868 869 873 874 868 855 848 851 849 848 851 849 847 846 840 836 840 844 848 853 849 844 848 851 850 849 843 835 829 824 819 814 814 818 817 817 821 822 821 821 819 817 816 815 813 811
865 864 863 862 860 858 856 855 852 850 851 852 864 891 907 902 898 899 897 894 895 895 890 885 886 889 891 889 885 883 877 873 875 874 874 878 878 877 878 874 871 875 876 874 873 875 875 862 852 855 850 847 853 851 846 847 845 842 846 850 852 851 848 845 846 852 860 858 847 841 837 832 828 821 816 819 824 828 828 824 822 822 821 819 819 817 816 814
866 865 864 863 861 860 858 854 854 852 852 862 881 901 908 902 899 899 897 896 896 894 893 893 892 892 895 894 891 888 883 878 880 881 879 881 881 880 881 878 873 874 877 876 870 873 877 864 852 857 857 852 851 848 846 848 847 847 851 852 851 850 850 849 850 855 862 864 856 847 843 838 833 828 825 829 839 843 838 830 827 827 826 826 823 819 818 815
866 865 865 866 862 861 859 855 856 855 855 872 894 903 905 903 900 900 899 897 897 893 895 898 896 893 895 896 895 892 889 887 887 886 885 885 883 881 882 883 879 875 875 874 872 876 879 868 855 855 857 855 852 853 858 860 853 849 852 854 853 854 856 856 859 861 863 867 866 858 850 841 832 831 834 842 851 851 845 840 835 832 831 831 829 825 822 818
867 867 867 867 863 861 861 856 857 861 869 888 902 904 906 903 896 898 899 897 896 893 895 898 898 897 895 896 898 896 893 892 890 888 888 887 885 883 884 886 883 880 875 872 875 878 879 876 868 858 855 856 858 863 869 869 864 858 858 864 863 860 860 858 859 864 865 869 874 873 866 848 834 836 844 850 854 851 848 847 843 837 834 832 832 830 826 822
868 868 868 867 864 863 860 859 872 885 891 900 904 904 905 900 893 896 896 895 896 894 895 897 897 898 898 896 898 897 895 893 891 892 891 889 887 886 887 887 886 884 877 873 876 876 877 882 880 870 864 862 864 872 878 875 871 868 868 874 875 872 869 866 865 869 873 874 876 881 876 854 840 845 851 853 854 850 849 849 846 841 836 832 832 832 830 826
869 870 871 868 865 863 861 871 894 903 897 897 903 903 901 897 894 895 894 894 895 894 895 896 896 899 900 898 898 898 896 894 892 893 893 891 890 888 888 886 885 883 879 878 879 878 880 885 881 875 874 874 872 876 882 881 873 869 871 875 878 879 880 880 879 879 884 884 879 881 880 863 850 851 853 853 854 851 849 849 847 844 839 834 832 830 830 828
874 874 871 869 867 865 865 877 896 901 897 902 907 903 901 899 897 896 896 895 895 894 895 897 899 899 899 900 899 898 897 896 894 893 893 892 890 887 888 886 883 882 879 880 881 878 882 887 881 875 877 876 875 875 878 877 873 872 875 876 878 880 880 883 883 882 886 886 880 882 881 864 851 851 851 852 853 851 848 847 846 845 841 837 833 830 828 827
879 878 874 871 866 864 868 879 889 895 900 904 902 899 900 901 898 896 897 897 897 897 897 898 900 899 898 900 899 897 897 896 896 894 893 894 890 886 887 886 884 884 881 883 884 878 881 889 886 879 875 869 869 873 873 874 876 878 879 879 881 880 880 882 883 883 884 880 877 882 874 853 846 850 852 853 853 850 848 847 846 844 842 839 836 831 829 826
879 877 877 876 869 868 879 888 890 893 900 902 900 900 901 899 898 898 899 899 900 901 900 900 901 899 899 899 898 897 896 896 897 895 894 894 889 886 887 885 885 886 884 884 883 877 883 893 889 881 881 878 875 878 879 879 883 883 881 883 883 881 882 883 883 886 887 882 881 882 869 850 847 853 854 854 854 850 848 847 845 844 842 840 837 834 831 827
878 876 878 879 877 880 891 898 894 892 897 898 898 903 904 899 898 899 899 899 901 901 901 901 901 901 900 899 899 899 897 897 898 897 896 895 890 888 888 886 885 885 884 883 881 882 889 897 894 888 886 885 884 883 884 884 887 887 884 885 884 882 882 883 886 889 887 887 886 878 867 860 857 858 859 857 853 851 849 847 845 843 841 839 838 836 833 830
879 881 886 884 882 886 892 897 897 894 897 897 897 903 905 901 901 899 898 900 902 902 902 902 902 903 903 903 903 902 900 898 899 898 897 895 893 891 888 886 886 884 884 884 884 886 889 894 901 899 888 886 889 886 884 886 888 888 886 884 884 884 885 886 890 887 883 889 886 869 863 867 863 861 863 859 853 852 850 848 846 843 841 839 837 836 834 831
881 888 896 892 886 889 892 894 897 899 900 901 903 905 903 902 904 903 901 902 902 902 903 903 905 906 906 906 904 903 902 900 900 899 897 897 898 897 891 887 887 887 887 887 888 891 892 892 900 901 891 890 892 887 884 887 887 885 885 883 882 883 885 886 886 882 881 885 879 862 862 869 865 863 865 858 853 853 851 849 847 844 841 839 837 836 835 833
887 891 897 895 893 897 901 901 901 901 902 903 904 905 904 904 906 907 906 904 903 904 904 904 907 908 906 906 905 904 904 903 902 901 899 901 902 901 897 890 888 889 889 891 893 895 894 892 895 898 895 893 890 884 885 887 885 884 882 881 882 883 884 884 882 880 880 880 874 868 871 871 865 864 863 857 853 853 851 849 849 845 842 840 839 838 836 835
887 888 892 894 897 902 904 903 901 899 902 905 904 904 906 906 907 908 908 906 905 905 904 905 908 908 907 906 906 905 903 904 906 905 902 904 903 901 900 896 891 890 891 894 896 896 894 892 892 894 895 892 885 882 883 883 883 885 880 877 880 882 881 881 880 879 879 877 873 875 877 872 864 861 862 858 854 852 852 852 850 847 844 841 840 839 838 836
886 887 888 889 895 903 902 901 902 899 900 905 905 905 907 908 911 910 907 907 906 905 905 906 907 907 908 907 906 905 904 904 905 904 902 904 903 900 899 897 895 895 896 896 896 895 895 893 891 892 894 892 885 881 880 881 883 885 879 872 870 871 870 871 871 870 871 869 868 871 873 868 862 860 861 860 855 853 853 855 853 849 845 843 843 841 839 836
887 888 888 886 892 903 903 901 903 901 899 903 907 908 909 909 911 910 906 905 906 905 906 907 907 908 908 907 906 905 904 904 903 901 900 900 900 899 898 897 897 899 900 899 898 897 895 894 893 893 892 888 882 879 882 883 879 874 870 865 862 864 866 865 864 865 865 865 866 868 866 863 862 862 862 860 857 855 855 856 855 850 846 845 844 842 840 837
Wind_Speed
17 17 17 16 17 17 15 15 15 17 18 18 18 19 19 19 20 20 20 19 20 20 20 21 21 21 22 23 24 24 25 26 26 21 11 12 19 16 12 12 14 16 16 16 15 11 11 10 9 11 6 2 1 1 1 2 1 1 3 3 5 5 5 6 6 6 3 2 2 2 2 3 3 3 1 2 4 2 1 2 2 3 2 3 4 3 10 21
16 16 16 16 17 17 17 17 16 17 17 18 19 19 20 20 21 22 21 21 20 20 21 21 21 22 22 23 24 24 26 25 20 12 10 17 19 16 13 13 14 16 14 13 12 7 4 5 7 8 4 1 1 0 1 1 2 2 3 3 6 5 5 6 7 6 3 3 2 1 1 3 3 2 1 1 4 3 1 3 4 5 5 2 2 7 17 21
16 16 16 16 17 17 17 17 17 17 17 19 19 19 20 20 22 22 23 23 22 21 21 21 21 22 23 23 24 24 24 19 10 4 14 22 19 18 14 11 15 15 12 11 9 5 3 5 5 3 3 1 1 0 1 1 1 1 3 4 6 4 4 4 6 6 4 3 0 2 0 3 2 2 1 1 2 2 4 5 1 4 8 2 2 9 15 17
17 17 17 17 17 17 18 17 18 18 18 19 19 20 20 21 22 23 24 23 23 23 21 21 20 21 23 23 24 24 18 8 2 4 17 24 21 20 14 12 16 14 10 7 5 4 3 3 1 1 3 1 2 1 1 2 1 1 2 4 5 4 4 4 6 6 3 2 1 2 3 4 1 0 2 3 0 3 5 6 5 8 7 5 5 7 11 14
19 19 19 19 18 18 18 18 18 18 19 19 20 20 20 22 23 23 23 23 23 23 22 21 19 21 22 22 24 21 10 2 2 9 19 24 22 19 15 13 16 14 10 7 3 1 1 1 3 3 3 1 2 1 1 3 1 1 2 2 3 3 3 2 4 4 2 1 1 2 4 3 1 1 3 4 2 5 5 4 6 7 5 7 8 8 9 9
19 19 20 20 20 19 19 19 19 19 19 20 20 21 21 22 22 23 22 22 22 22 22 21 19 20 20 22 22 14 5 0 6 15 21 24 21 19 16 13 15 15 10 11 11 6 4 5 5 4 2 2 2 2 2 4 2 2 2 2 3 1 2 2 2 1 0 2 1 3 3 1 3 3 2 5 6 7 4 4 6 6 6 8 7 9 9 9
18 19 20 21 21 20 20 19 19 20 20 20 21 21 22 22 22 22 22 22 21 21 22 20 19 18 19 22 18 7 3 2 12 19 22 22 19 18 16 12 14 16 14 16 15 7 4 7 5 2 2 2 2 0 2 4 3 1 2 4 5 3 1 3 3 1 2 4 4 2 2 2 0 3 1 3 8 6 3 3 4 3 6 8 7 9 10 11
19 20 20 20 21 21 21 20 20 20 21 21 21 22 22 22 22 22 22 21 21 21 20 19 17 16 19 19 11 4 1 5 16 21 21 20 17 17 16 12 15 17 16 16 12 5 3 6 4 2 2 2 1 1 2 4 4 2 2 5 5 4 2 4 3 1 2 2 2 1 2 5 5 1 1 6 9 4 3 2 1 3 6 7 7 9 9 9
20 20 21 20 20 20 21 21 20 20 21 21 21 22 23 23 22 21 22 21 21 21 18 17 15 14 18 13 5 2 4 11 18 19 20 19 17 17 15 15 17 17 16 14 13 9 5 3 3 2 2 1 1 1 2 1 2 1 2 5 5 5 4 4 2 3 1 2 2 1 5 6 3 0 2 9 9 3 3 4 3 5 5 5 6 7 7 7
21 21 22 21 20 20 19 19 20 20 20 21 21 22 22 23 22 21 22 20 20 19 17 15 12 14 15 9 4 3 8 16 16 18 22 20 17 16 16 17 16 16 14 13 14 10 4 1 2 0 3 1 1 2 2 2 0 1 3 4 5 5 4 2 1 3 3 1 3 3 6 5 2 0 2 8 6 1 5 5 3 3 4 4 5 5 5 6
22 22 23 23 22 21 19 18 18 19 19 20 20 21 21 22 21 22 22 19 18 17 15 13 12 14 11 6 4 2 13 18 15 20 24 21 18 15 14 16 14 13 12 11 12 9 4 1 2 1 1 1 1 2 1 1 0 2 2 4 6 5 3 0 1 2 2 1 3 4 4 3 2 1 5 8 4 1 4 3 1 2 3 4 5 5 4 6
23 24 24 24 23 23 21 18 17 19 19 19 20 20 20 20 21 22 21 17 16 14 12 11 12 12 10 4 3 3 16 18 17 22 24 22 19 13 11 14 14 12 9 8 10 11 7 5 4 3 1 1 1 2 0 1 1 1 2 2 7 6 4 3 1 1 1 1 4 4 3 4 1 3 8 8 4 4 4 3 2 3 4 3 4 4 5 7
24 24 23 23 23 23 23 19 16 18 19 19 20 20 19 19 20 21 17 14 13 12 9 9 12 11 7 2 2 9 19 18 19 22 22 22 18 11 10 12 12 10 8 6 8 10 9 6 4 2 1 1 1 2 1 3 1 0 2 2 4 5 3 4 3 2 1 2 3 4 2 4 4 6 9 6 6 6 6 6 4 4 4 4 4 4 5 7
23 23 22 22 23 23 23 19 16 17 18 19 20 20 19 19 19 16 13 13 13 11 8 9 11 8 4 1 3 14 21 18 20 23 22 21 18 14 13 12 10 9 8 7 7 8 9 7 3 2 1 1 1 3 3 5 3 1 2 2 3 1 3 5 4 3 1 1 1 4 3 4 5 7 7 6 7 5 5 7 6 4 4 4 3 4 5 5
23 23 22 22 22 22 21 18 16 17 18 19 20 19 18 16 15 13 13 15 13 8 6 7 8 6 2 1 6 17 23 21 23 25 22 21 17 13 15 15 9 7 7 5 6 7 8 7 4 3 3 2 3 4 4 4 4 3 2 2 3 1 3 6 5 5 3 3 3 3 4 5 5 6 7 7 6 6 5 7 7 7 6 5 4 4 4 5
23 23 23 23 22 20 18 16 16 18 19 20 19 17 14 12 11 14 18 15 9 5 3 5 7 4 3 2 11 19 21 20 23 23 20 19 14 10 15 13 7 7 5 3 5 5 7 7 4 2 3 3 4 3 3 4 4 4 3 1 2 1 2 4 3 6 6 4 5 3 1 3 5 7 9 7 6 7 6 6 7 7 6 5 4 4 5 5
23 24 23 23 21 18 17 16 17 18 19 18 16 13 10 9 10 16 21 14 6 4 3 7 9 1 2 7 12 13 15 20 23 22 21 18 11 11 14 7 5 8 4 4 6 5 6 5 2 1 3 3 2 3 4 3 3 3 3 3 1 1 1 1 3 6 8 6 5 5 2 3 7 10 11 8 6 6 6 7 8 7 7 6 4 4 5 6
23 24 23 22 20 18 16 17 18 18 19 16 12 9 7 8 11 18 25 18 6 2 2 10 13 2 1 10 10 11 19 22 20 19 21 18 11 12 11 3 4 7 4 4 6 5 4 3 2 2 3 4 3 4 3 1 1 1 3 3 2 3 1 1 3 4 8 7 5 6 4 4 8 10 12 11 8 6 5 6 7 7 6 6 5 4 4 5
22 23 23 21 19 18 16 17 19 18 18 14 5 6 8 5 6 12 22 20 9 4 2 7 8 3 3 9 11 17 21 16 14 17 22 20 14 11 8 4 4 5 4 3 4 4 3 3 4 4 3 4 3 3 4 4 3 4 3 3 2 1 1 4 4 3 5 6 5 4 3 5 7 8 10 12 9 7 6 5 6 7 6 6 5 5 4 5
20 22 23 20 18 17 15 17 18 17 18 15 7 8 9 6 3 5 14 13 5 3 1 3 1 1 4 7 11 20 18 10 10 15 23 22 13 9 7 6 6 6 4 1 1 3 4 5 3 2 2 3 2 2 4 3 2 4 4 3 2 1 2 4 5 4 4 3 4 4 4 5 5 7 9 9 9 8 8 7 7 8 8 7 7 7 7 5
20 21 22 20 17 14 14 15 16 16 16 19 19 12 5 4 4 3 6 6 2 1 1 4 2 3 6 8 11 15 9 6 10 15 24 22 9 6 6 5 6 5 2 1 2 3 5 5 1 1 3 4 1 2 3 4 4 4 3 3 3 2 2 4 4 5 5 3 4 6 7 7 6 7 8 8 7 7 7 7 7 8 8 7 7 8 8 7
21 21 20 20 16 11 11 13 13 14 15 21 25 14 2 7 6 4 3 4 5 2 1 5 2 2 9 8 8 9 3 5 11 14 22 20 8 5 4 4 6 3 3 2 2 4 5 4 3 5 3 1 2 3 6 6 5 4 3 3 2 2 3 5 4 5 5 3 4 7 6 7 8 7 8 7 5 5 5 4 5 6 7 7 7 8 8 9
21 21 20 18 14 8 9 11 10 13 18 21 22 13 6 12 10 1 1 2 5 4 3 5 4 5 10 7 9 11 4 3 6 10 19 15 6 4 3 5 6 3 5 5 4 3 3 2 5 4 1 4 5 5 6 6 4 4 3 4 1 3 2 2 4 6 5 1 2 6 4 5 6 6 6 5 3 4 5 4 4 3 4 6 6 6 7 8
22 22 20 16 12 6 6 9 10 12 16 17 18 14 9 11 9 3 1 1 3 5 4 4 2 3 7 7 11 9 2 1 2 8 16 11 4 4 3 3 5 4 5 4 6 6 3 3 5 3 4 5 5 6 6 5 4 3 3 4 1 4 1 3 4 6 5 3 2 4 4 4 5 7 7 5 4 4 5 6 6 4 3 5 6 7 6 6
22 23 19 14 11 5 3 7 10 10 8 10 14 13 10 9 7 4 2 3 3 7 7 6 3 6 10 11 12 6 1 3 3 5 11 9 5 3 3 2 3 5 5 4 6 5 3 5 3 5 6 6 6 5 4 4 3 3 1 1 3 4 3 5 5 4 4 4 4 5 4 4 5 6 6 6 6 7 6 7 9 9 8 8 9 10 9 9
22 21 17 14 12 6 2 4 10 9 3 7 13 11 9 9 6 3 2 4 4 5 8 9 6 11 15 13 12 5 2 6 9 8 11 11 5 1 3 3 2 4 3 2 3 2 3 6 5 6 6 7 7 4 3 3 5 2 1 2 3 2 2 4 3 3 2 2 3 5 4 3 6 6 6 5 7 8 7 9 10 10 11 11 10 10 10 11
22 21 16 13 14 11 3 1 8 8 2 6 13 12 10 8 5 3 2 5 5 4 7 8 5 11 14 13 13 5 3 7 11 11 13 11 7 1 4 4 2 3 2 1 2 1 3 6 8 8 6 6 5 4 4 3 5 1 2 1 1 1 2 1 3 3 1 1 4 5 3 1 3 4 6 6 6 8 10 12 13 12 13 13 12 12 12 12
21 21 16 12 13 14 9 5 7 8 6 10 13 12 10 7 4 2 5 5 4 3 2 5 7 10 12 13 11 5 0 6 5 11 16 13 8 2 4 5 2 2 4 3 3 1 2 5 7 7 6 5 3 2 3 3 3 1 3 1 1 1 1 2 4 1 1 3 4 6 3 2 3 5 6 5 5 8 12 12 12 12 13 14 13 14 14 13
20 20 18 13 9 10 11 11 11 10 12 13 12 12 9 4 2 4 6 3 3 3 0 4 9 9 10 11 10 7 4 4 4 8 15 13 12 5 3 3 2 3 5 4 4 1 1 2 2 3 4 3 2 4 3 2 1 4 3 2 2 3 3 3 4 1 3 4 2 5 4 2 3 5 5 4 6 7 9 9 9 10 11 12 13 13 14 14
19 19 19 16 12 10 7 10 15 15 16 16 14 12 7 2 3 6 5 1 1 4 2 4 6 6 9 9 8 9 8 5 3 6 7 6 10 9 3 0 3 5 5 5 5 2 2 3 2 2 3 3 3 3 1 2 3 3 4 4 3 5 4 3 3 3 5 3 3 4 4 2 1 4 3 0 3 5 6 7 9 10 11 13 13 13 13 13
16 16 18 18 18 17 9 9 19 20 20 19 13 8 3 3 5 6 3 2 2 5 4 4 5 6 9 7 5 9 8 7 7 8 8 5 9 13 8 4 4 4 6 6 5 5 5 5 3 2 3 3 2 2 2 2 2 2 4 3 3 4 4 4 4 4 4 2 5 4 3 2 2 3 4 2 2 6 6 6 8 10 11 13 12 12 12 11
13 13 15 17 19 20 14 13 22 23 22 17 7 3 5 5 5 2 1 3 2 4 4 4 5 6 8 4 6 8 6 6 8 7 7 6 8 11 8 6 5 4 6 5 4 6 5 3 4 5 4 6 6 3 4 6 6 5 3 4 4 2 4 4 3 2 1 3 4 5 4 2 2 5 5 5 6 7 5 4 5 7 10 13 12 12 11 10
11 11 13 16 19 22 21 19 22 21 18 9 3 5 7 6 3 1 3 3 1 3 3 3 5 6 6 5 7 8 4 4 8 8 6 4 6 8 8 9 8 4 3 3 4 6 4 3 8 8 5 6 6 3 2 4 5 5 3 4 3 2 3 1 2 2 1 4 5 4 4 1 2 3 2 2 4 5 5 5 4 6 10 11 11 11 11 12
9 11 13 16 19 23 24 23 21 16 9 6 5 6 9 5 1 2 3 2 2 4 3 3 6 6 5 4 4 6 3 3 7 7 6 7 7 7 8 11 13 6 1 3 4 3 3 3 7 7 4 6 6 2 0 1 2 3 1 4 3 3 3 2 1 1 2 3 5 4 3 1 2 0 3 2 2 3 4 6 7 9 11 11 11 12 14 15
7 9 13 17 20 23 24 22 19 12 6 9 8 7 7 2 3 1 2 3 2 4 5 3 4 5 5 4 4 5 2 2 6 6 5 7 7 6 6 8 11 8 3 4 3 2 3 1 5 4 3 4 6 4 1 1 2 2 1 3 2 1 2 2 2 3 2 1 3 2 0 3 2 1 2 2 5 8 9 11 13 15 14 13 13 14 14 14
6 8 12 18 22 23 23 20 16 8 4 8 8 5 2 2 2 1 1 2 2 4 6 5 5 5 5 4 5 7 4 1 6 6 4 5 6 7 6 4 7 8 4 3 2 3 3 2 5 6 4 5 5 5 3 3 1 2 2 2 2 1 2 2 1 1 3 2 2 1 1 4 3 2 4 8 12 16 16 15 15 14 15 15 14 13 13 13
8 7 8 18 25 23 21 18 11 8 7 6 8 4 1 2 1 2 1 1 1 3 3 4 4 4 4 3 4 9 7 4 5 5 3 4 4 6 7 4 5 7 4 1 1 2 2 3 4 5 5 4 2 2 4 4 3 3 3 2 2 1 2 3 2 2 4 1 2 2 1 4 4 2 5 12 16 18 19 19 18 17 18 17 14 14 14 14
9 6 5 16 24 21 19 17 8 9 9 7 7 4 2 1 1 2 2 1 1 2 4 2 2 2 2 2 3 7 7 5 5 4 3 3 2 4 6 4 6 9 6 2 1 1 1 2 4 1 2 7 4 3 4 7 5 4 2 1 1 3 2 2 2 2 2 0 3 4 1 2 1 1 6 12 13 15 17 19 19 19 17 15 15 16 16 16
8 4 3 15 22 18 16 13 8 9 8 6 4 2 2 2 3 3 2 2 0 2 3 1 1 2 2 2 2 4 4 4 4 3 2 3 2 2 6 4 7 11 9 4 2 2 1 2 3 4 4 5 4 5 3 5 6 3 2 3 2 2 1 1 1 1 1 1 1 3 3 2 3 2 6 11 10 11 14 15 16 17 15 12 12 14 15 15
6 2 2 15 21 15 11 11 12 9 6 4 1 1 1 2 4 4 3 1 1 1 2 0 1 2 2 2 1 2 3 3 3 2 2 2 2 2 6 5 6 10 9 4 3 1 2 3 1 7 7 3 3 3 1 2 5 5 5 5 4 3 2 2 1 1 3 2 0 1 3 4 5 0 7 10 9 10 11 11 11 14 15 13 11 11 13 14
5 2 3 17 21 12 7 11 10 5 3 3 0 1 1 2 1 3 3 1 1 1 1 2 2 2 1 2 2 2 2 3 3 2 1 3 3 2 3 4 5 8 6 5 4 2 2 2 1 3 5 4 2 3 1 2 2 4 4 3 3 3 3 4 2 3 2 2 2 2 2 6 4 3 7 8 8 10 10 9 9 12 14 14 12 10 11 12
5 2 5 19 20 9 9 8 3 2 4 2 0 1 1 1 1 3 4 2 2 1 2 2 2 2 1 1 2 1 1 2 2 2 1 2 2 1 2 5 7 5 1 2 3 1 1 2 2 1 2 2 5 4 2 1 1 5 4 2 3 2 4 4 0 3 2 1 0 1 1 4 3 4 8 8 7 8 8 8 8 9 11 13 14 12 10 10
3 2 5 19 17 5 10 6 2 3 2 2 1 1 2 1 1 2 3 3 2 1 3 2 1 2 2 1 2 1 1 0 1 1 1 2 2 1 4 9 9 5 2 3 3 1 2 3 3 3 4 4 5 5 4 2 3 5 3 2 3 2 1 3 3 1 0 1 1 1 1 4 4 4 8 8 8 8 8 8 8 8 8 11 13 13 12 11
1 2 3 17 15 3 5 3 1 2 2 3 3 3 3 1 0 2 3 3 2 2 2 2 1 1 1 1 1 1 2 1 1 2 1 1 3 1 5 11 9 4 3 3 2 1 1 1 2 3 4 5 6 6 5 5 5 3 2 3 3 2 2 1 1 1 0 2 2 2 2 6 3 5 9 10 10 10 9 8 8 8 8 9 10 11 12 12
2 0 3 12 18 10 4 3 5 3 0 2 3 3 4 2 0 1 1 2 2 1 2 1 1 1 1 1 2 2 2 2 1 3 1 1 4 2 7 12 8 2 2 4 4 1 1 1 2 4 3 1 2 2 3 4 4 2 3 5 4 2 2 2 1 0 1 0 2 3 4 7 5 7 10 12 12 11 11 10 9 8 7 8 9 9 11 13
2 2 2 7 12 10 3 1 4 4 3 3 2 1 2 2 2 1 1 2 1 1 2 2 1 2 2 3 3 2 3 2 1 1 2 3 3 2 7 10 7 3 3 7 9 3 3 2 1 5 5 4 4 4 3 4 4 4 6 7 4 2 1 2 1 2 2 1 2 5 7 10 9 8 11 13 12 11 12 11 10 10 9 9 8 7 9 12
2 2 1 2 4 4 3 3 4 3 2 2 2 0 1 2 2 2 1 1 2 2 2 2 3 2 2 3 2 2 3 4 2 1 3 4 2 5 9 6 4 6 5 6 7 3 4 3 1 3 4 3 3 5 5 4 4 5 6 7 5 4 2 2 2 4 2 1 4 6 5 6 8 8 10 12 11 10 11 11 10 11 10 9 8 7 9 12
2 2 1 1 0 0 2 2 2 3 3 2 2 1 2 2 2 2 2 2 3 3 1 1 4 4 2 2 1 1 3 4 2 1 3 3 3 7 9 3 2 5 5 5 5 3 5 0 2 1 2 4 5 6 6 4 4 4 5 7 7 6 4 5 6 7 4 3 7 8 6 8 9 7 8 11 11 9 10 9 9 11 11 10 8 8 10 13
2 2 1 2 1 2 1 1 2 4 4 3 2 1 2 2 1 1 1 2 3 3 2 1 3 5 4 3 1 0 2 2 2 2 2 4 5 4 5 3 2 3 6 6 4 2 3 1 2 0 5 6 6 7 6 4 4 4 6 8 7 7 7 7 8 7 6 8 11 10 11 12 8 4 7 10 10 8 7 8 9 13 14 12 9 8 11 13
2 2 1 2 3 1 1 1 2 4 3 3 2 1 1 3 1 2 2 1 1 3 1 1 3 5 3 0 2 1 3 1 2 4 2 4 5 2 1 3 2 4 6 5 3 2 2 2 1 1 3 5 6 6 4 4 4 5 9 10 6 5 5 5 5 4 5 7 9 7 9 8 4 3 6 9 9 8 8 10 12 14 14 12 10 11 13 15
3 2 2 4 3 2 1 1 2 4 2 2 1 0 1 2 0 2 2 1 2 2 2 1 3 4 1 1 1 4 4 0 4 7 5 5 5 2 1 3 2 5 6 3 2 3 2 1 3 2 1 3 4 5 6 6 4 5 9 10 5 3 2 3 4 4 5 5 5 4 4 3 4 5 6 6 8 9 9 11 13 15 14 11 11 13 16 18
4 2 2 5 2 2 1 2 2 3 0 1 1 1 1 0 1 0 0 2 0 2 2 2 2 2 1 2 4 5 4 4 7 9 7 7 7 5 5 5 3 3 3 1 1 1 0 1 2 2 2 2 3 5 6 5 4 3 4 5 4 3 3 3 4 4 4 4 2 2 2 3 6 6 6 7 8 10 11 10 11 14 12 10 12 15 18 19
Wind_Direction
9 8 5 4 2 360 2 5 2 355 354 353 352 352 352 351 349 348 344 341 339 338 338 337 339 339 337 337 336 334 329 325 327 329 336 354 351 346 339 330 335 334 321 315 314 316 329 338 351 358 19 93 188 245 237 177 143 148 156 175 200 193 188 184 180 193 181 181 217 346 26 86 359 319 313 41 37 48 40 329 304 304 263 212 275 294 154 158
4 3 360 359 358 357 356 358 359 353 351 350 351 352 352 352 350 349 346 344 341 338 338 337 339 338 338 337 335 335 330 326 322 319 354 360 355 357 350 338 339 334 322 317 314 312 329 325 330 355 39 73 276 247 274 210 172 182 147 187 213 191 187 183 175 193 185 173 202 339 131 51 9 294 359 21 328 6 141 276 338 324 277 312 21 141 149 156
359 357 354 354 352 352 352 351 352 348 348 347 348 349 349 350 348 347 345 342 341 340 339 338 338 338 338 337 336 337 330 326 323 341 11 2 358 3 0 352 351 342 330 320 306 293 288 294 302 350 60 54 286 336 260 242 216 189 141 211 225 195 211 203 179 199 193 159 26 319 146 43 354 253 33 126 315 346 207 232 277 265 250 243 98 143 151 158
356 352 350 348 347 347 346 345 345 343 344 343 343 345 344 344 344 344 342 340 339 339 339 338 337 337 337 336 338 337 331 331 6 11 4 0 359 2 3 359 358 354 344 330 298 288 285 280 291 16 81 92 308 62 176 234 182 173 176 215 221 193 216 210 192 213 212 137 136 289 343 360 288 128 91 141 128 295 249 240 225 241 234 179 170 163 159 163
355 353 349 346 343 340 340 340 340 340 340 339 339 339 339 339 339 340 341 339 337 336 338 337 336 336 335 337 339 339 342 19 26 357 351 354 357 359 1 359 3 6 10 27 13 325 5 36 59 31 61 97 338 92 217 280 108 223 231 214 226 200 219 217 182 224 250 112 323 314 321 306 198 67 127 146 235 253 233 232 238 248 220 171 176 171 167 172
357 354 350 347 344 339 337 336 336 338 337 337 336 335 335 334 335 337 339 340 338 335 336 336 335 336 334 337 340 347 24 124 344 349 342 347 355 357 359 355 2 12 24 38 36 43 39 26 54 36 20 74 74 147 256 323 357 256 272 329 322 299 275 326 39 294 106 112 243 266 291 328 40 329 200 163 227 234 216 223 247 247 190 165 165 164 172 182
356 354 351 348 346 341 337 334 334 334 334 335 334 334 333 332 335 336 337 339 337 333 335 335 335 334 333 339 342 358 76 279 326 343 342 348 356 357 359 353 360 14 29 32 28 33 41 31 47 54 34 73 91 165 300 327 355 228 272 337 344 346 322 328 346 324 125 151 219 220 340 338 12 295 298 201 240 252 292 274 257 230 156 146 157 176 186 189
355 353 350 347 346 343 340 336 334 331 331 332 331 332 332 332 335 333 336 338 333 331 332 333 335 332 335 344 351 2 50 311 329 342 348 351 358 2 358 356 1 11 28 30 23 29 62 42 33 44 37 25 124 14 352 353 24 61 293 330 333 322 330 314 322 57 131 199 233 95 298 253 214 222 349 260 256 274 320 328 60 110 124 146 173 189 196 196
352 350 347 346 344 342 339 336 334 332 331 330 329 329 328 331 332 331 335 335 331 329 330 334 333 329 336 350 22 20 336 335 340 349 356 355 358 3 359 3 5 7 18 20 24 39 63 59 2 29 85 277 291 1 7 34 41 47 290 306 309 314 327 311 336 41 323 248 142 152 275 273 246 187 284 263 261 289 17 42 70 105 130 174 189 198 202 204
348 346 344 344 342 339 336 334 334 332 330 330 329 327 325 328 329 331 335 334 330 328 330 334 328 329 338 358 43 34 344 346 352 358 1 358 356 1 3 8 7 7 11 6 18 36 58 104 274 297 131 200 318 337 9 98 128 282 265 279 285 294 305 316 348 324 307 268 161 196 262 286 319 41 263 271 264 54 48 51 66 113 154 194 205 209 210 221
346 345 345 344 343 340 334 332 333 330 330 330 329 327 326 326 327 333 335 332 329 327 331 330 326 331 339 16 81 13 347 350 354 358 1 1 358 359 3 8 7 7 10 359 4 14 10 338 259 157 123 265 341 343 344 115 352 272 258 300 306 307 297 12 127 270 312 302 172 171 258 296 13 123 231 262 265 60 29 22 68 162 198 204 210 213 209 231
349 348 347 345 344 341 336 334 332 330 330 330 330 329 326 325 329 334 333 332 333 329 328 327 326 330 339 18 146 328 350 354 351 354 1 360 356 359 1 5 4 6 11 356 352 360 356 349 40 66 306 289 28 3 287 218 260 285 61 346 320 353 351 342 30 289 356 289 166 140 295 285 193 209 234 259 301 344 330 299 256 231 236 220 215 222 218 234
351 350 349 346 344 341 339 337 335 333 331 331 330 330 330 330 334 336 334 339 344 336 327 325 323 326 348 357 248 346 354 352 350 354 1 359 357 4 8 4 2 6 10 355 343 355 1 352 34 52 317 54 323 283 12 354 7 330 59 74 332 7 352 331 355 322 89 181 172 138 269 265 234 251 254 282 357 356 315 286 267 245 253 249 226 226 232 239
352 352 349 347 345 341 339 340 340 335 332 333 332 335 337 337 337 339 342 344 343 339 328 326 326 331 356 261 295 351 351 351 356 358 359 357 357 4 7 4 5 7 2 353 343 355 3 349 11 49 10 85 297 306 4 358 22 51 34 43 15 47 283 321 350 350 66 172 60 126 220 270 265 272 286 329 19 23 322 299 300 297 292 287 266 256 254 252
354 353 350 348 345 340 340 345 344 337 336 336 338 343 343 343 348 353 356 346 341 342 332 330 335 346 17 276 325 348 353 358 358 356 356 351 351 355 354 355 2 7 358 350 352 359 7 4 36 51 320 340 33 25 5 346 5 29 71 359 353 125 275 323 7 23 28 324 11 117 230 276 264 282 321 338 13 39 354 313 318 323 318 321 313 299 291 285
357 356 353 351 346 344 349 354 348 340 341 343 345 349 349 356 10 13 5 355 357 17 8 346 342 4 83 330 333 351 357 353 345 349 357 352 346 339 340 346 357 5 12 19 7 4 12 24 63 64 346 12 46 63 37 12 356 359 81 119 338 51 308 318 7 21 25 349 358 48 287 302 294 306 321 326 357 14 354 321 317 319 319 326 319 305 302 297
359 358 357 355 353 357 2 357 349 347 349 350 349 354 7 25 38 26 18 20 32 42 48 7 350 5 88 353 347 352 340 333 337 348 360 358 348 339 339 342 348 353 21 49 25 16 9 23 70 33 29 37 40 84 61 15 329 328 29 98 61 33 69 315 323 353 27 39 4 13 26 290 299 312 320 329 359 4 348 329 317 313 311 311 311 302 298 299
359 360 0 1 1 6 5 356 356 359 359 356 352 7 42 65 57 36 29 35 36 19 40 3 1 64 349 344 339 322 316 323 337 348 359 3 354 346 347 340 334 351 29 38 24 25 8 11 55 44 13 16 22 56 86 173 200 37 29 76 47 4 32 338 306 329 17 27 355 355 356 302 307 317 321 324 347 8 353 325 310 307 303 299 306 296 279 285
359 0 1 3 3 6 6 2 7 10 6 4 14 58 63 65 54 32 23 29 39 39 23 343 6 101 283 313 307 316 322 327 345 355 1 3 352 348 358 5 2 28 54 34 7 17 31 25 37 60 17 0 11 41 108 154 130 95 70 88 96 18 294 289 277 286 360 2 335 346 325 303 315 316 313 315 334 353 341 331 319 313 311 311 319 309 294 284
0 359 359 3 2 5 13 16 19 21 19 28 73 79 48 18 8 10 3 12 50 76 126 275 334 182 289 295 306 332 341 342 355 3 3 358 345 348 2 12 27 47 59 75 341 12 68 66 49 81 355 305 313 34 118 143 97 87 77 68 83 74 300 290 284 297 357 8 289 299 311 299 296 294 295 307 329 338 335 346 342 328 327 329 333 330 324 306
0 359 357 1 4 8 23 29 32 35 32 47 65 67 47 13 2 328 336 340 322 93 210 278 263 232 293 289 305 338 350 340 349 0 3 0 356 4 355 13 41 37 13 274 316 6 65 71 52 248 269 254 224 71 93 90 66 68 80 67 39 23 289 276 281 313 3 38 288 310 336 314 294 287 286 304 324 330 337 348 339 328 327 329 337 335 328 319
360 359 355 0 8 15 33 39 41 40 38 50 58 60 42 14 357 264 275 330 311 322 303 315 323 292 316 307 317 346 4 344 349 353 0 3 16 33 354 22 55 33 349 11 17 20 54 61 325 284 258 139 61 61 73 77 79 69 72 78 37 335 301 293 305 329 357 36 299 319 341 309 301 292 281 302 321 317 330 331 304 305 318 329 338 334 330 329
359 358 354 1 11 21 44 45 43 40 41 50 51 42 14 14 14 255 203 342 301 317 354 352 356 333 341 351 347 355 23 13 348 340 353 2 13 37 34 28 42 34 13 44 86 73 66 16 319 303 131 86 40 35 68 73 67 67 75 83 345 301 347 306 316 334 342 35 279 305 321 307 325 329 306 312 311 296 311 309 279 261 290 310 318 322 325 329
359 357 354 4 15 25 52 42 39 39 42 50 44 31 17 12 21 47 42 69 295 313 340 350 334 331 338 336 339 350 17 341 329 330 349 6 2 7 56 32 29 35 17 45 89 94 76 327 319 4 73 91 69 38 59 78 46 34 78 94 310 299 290 240 297 332 343 9 337 340 353 327 349 0 336 323 321 325 338 345 347 347 320 310 324 338 337 332
359 356 356 11 21 27 59 33 28 30 36 44 31 21 21 9 4 19 37 74 356 316 334 349 360 357 335 327 337 338 221 344 356 326 340 3 0 351 24 15 50 31 360 31 72 82 45 336 347 52 52 67 81 52 42 102 77 16 65 144 259 262 249 271 316 2 23 359 340 27 40 304 330 359 338 331 342 342 354 5 360 354 354 355 353 353 353 349
360 0 3 18 21 24 72 26 15 18 40 31 12 8 16 4 349 11 63 66 22 329 344 353 356 353 343 338 337 335 99 353 334 344 357 359 353 69 35 354 41 29 351 27 61 81 20 354 25 63 63 60 71 57 25 105 95 42 194 203 258 212 199 295 340 53 68 303 324 51 105 264 329 343 320 331 338 334 356 9 0 355 358 359 357 355 356 354
4 8 11 16 21 30 65 2 10 27 52 355 357 358 0 355 342 348 45 47 20 343 343 337 329 346 344 336 335 359 87 317 322 360 8 358 343 43 59 9 9 10 342 51 45 47 358 1 24 34 48 58 57 43 16 72 99 92 222 182 326 67 80 346 73 97 182 254 343 19 99 146 334 301 296 326 346 352 4 1 354 356 356 355 358 360 0 359
9 14 17 10 14 32 51 45 22 33 10 338 345 349 343 345 342 5 74 66 348 338 352 314 320 338 337 334 350 44 86 304 356 355 345 3 9 11 52 34 51 2 345 65 74 37 12 18 24 25 37 50 35 316 324 19 84 248 278 315 322 44 84 95 90 109 302 54 356 339 37 83 304 285 308 347 29 15 360 351 348 353 354 356 357 358 0 1
10 16 19 14 13 25 44 47 30 11 353 341 340 339 328 329 7 50 72 87 309 334 143 330 338 338 338 343 5 35 351 350 58 324 330 12 23 24 62 28 90 56 0 58 79 20 35 6 357 42 42 24 310 276 282 33 351 276 318 1 45 51 51 64 72 92 39 52 323 322 15 70 289 293 320 10 44 15 345 340 346 350 354 357 357 358 360 1
9 15 16 21 30 20 24 34 19 2 348 341 333 331 327 344 52 59 43 4 302 328 297 358 350 331 348 358 1 4 3 6 357 326 338 16 18 29 68 7 88 74 15 38 50 358 322 311 298 58 23 295 275 288 256 154 259 295 12 18 27 30 29 40 32 62 55 12 273 318 4 67 343 290 281 41 69 28 347 341 348 352 358 358 358 359 358 358
8 14 16 24 30 24 19 0 357 353 342 334 327 332 11 35 56 85 62 277 279 324 333 359 340 338 360 17 6 348 353 353 343 3 10 4 22 30 30 14 33 45 21 21 16 3 16 16 353 318 329 343 2 1 14 11 345 42 53 42 39 7 7 25 0 34 66 282 269 312 339 85 102 266 264 267 33 31 8 349 345 348 356 358 357 357 355 355
10 18 22 27 28 24 18 347 344 347 338 332 337 35 68 47 34 93 301 325 334 325 332 332 327 342 342 353 15 350 343 354 351 14 15 3 29 36 38 26 357 9 26 10 353 8 24 26 351 324 337 18 24 19 6 2 17 40 48 54 63 19 9 17 345 14 89 248 270 317 348 85 196 253 271 312 1 9 356 353 344 346 359 360 355 352 350 351
18 29 29 28 24 17 8 351 346 345 338 338 50 64 70 74 45 293 296 338 353 307 309 306 312 326 330 351 8 347 341 4 356 4 6 13 36 35 41 31 14 36 52 358 2 11 349 330 4 3 350 14 32 54 20 347 360 15 41 82 93 94 63 353 310 1 306 272 283 318 13 39 279 278 251 321 348 327 329 358 4 8 9 359 350 350 350 353
21 32 29 24 19 9 1 354 350 346 357 49 76 52 62 80 357 334 328 279 252 303 321 317 316 329 4 25 353 336 351 1 356 4 1 17 34 18 16 19 16 24 59 28 28 33 28 344 4 10 334 356 25 47 185 276 339 344 118 109 113 127 123 188 212 139 236 276 300 333 39 158 247 71 150 173 269 298 353 14 17 19 10 358 354 357 357 355
15 22 22 18 15 6 359 356 353 350 41 75 66 57 74 106 252 308 313 271 270 314 317 336 355 3 7 356 336 348 11 337 354 18 20 27 38 11 356 4 8 8 16 34 15 17 67 293 311 326 300 1 9 321 285 80 352 321 115 78 58 151 142 150 155 170 191 312 306 325 38 221 220 40 32 25 355 3 22 21 16 11 2 359 0 359 358 352
1 10 17 15 10 3 359 359 359 8 77 84 67 63 95 183 220 195 281 316 339 313 320 350 23 23 354 331 336 350 2 6 6 21 23 27 37 15 353 334 5 18 18 40 24 353 19 296 310 341 349 31 27 331 353 64 344 336 47 38 318 215 138 106 60 2 50 56 287 319 305 295 332 359 351 14 13 9 12 11 11 6 358 1 0 355 353 348
355 358 12 11 4 358 359 0 11 57 84 82 76 84 207 225 212 212 258 331 313 315 4 19 9 13 354 331 329 342 352 4 14 27 16 10 25 8 355 323 359 22 7 4 96 357 350 292 312 11 358 340 8 339 349 22 55 65 45 339 314 38 91 97 79 14 40 77 284 328 295 314 352 344 340 9 16 9 4 1 1 1 0 358 353 351 348 345
346 347 9 5 359 356 358 359 22 75 73 65 79 101 195 255 280 237 268 311 286 11 51 54 331 12 9 346 323 332 350 0 4 26 28 10 6 0 7 341 341 1 351 352 51 356 32 316 297 4 328 305 337 47 358 353 26 84 96 321 63 81 45 38 82 51 38 68 303 323 316 318 324 253 352 10 19 12 3 358 354 353 356 353 347 348 347 345
347 356 7 355 357 357 354 2 42 69 63 69 87 122 198 269 280 240 250 321 355 55 53 32 317 29 15 13 315 317 357 16 353 18 54 18 347 11 27 0 329 343 345 20 58 305 35 59 305 306 318 314 360 43 21 338 347 15 36 16 49 113 118 17 100 110 95 123 311 335 345 312 237 217 22 22 23 18 7 356 347 343 346 350 348 347 346 347
7 49 327 348 358 355 352 30 52 50 57 84 150 166 153 250 276 259 238 245 54 57 64 146 26 32 347 355 355 315 3 20 354 22 53 5 332 1 24 19 337 334 337 16 67 321 3 63 347 316 332 5 37 27 37 325 345 11 28 20 7 355 26 37 26 78 90 103 137 352 326 285 252 184 46 35 24 17 8 353 340 335 338 344 351 351 347 346
31 69 316 348 357 351 11 47 49 39 75 76 87 133 131 229 279 317 283 240 66 13 76 124 83 53 325 345 359 324 349 6 9 36 21 357 15 25 27 22 339 325 338 15 27 31 18 49 63 326 344 23 359 334 342 274 350 51 45 29 22 10 47 60 343 334 49 102 154 162 267 279 281 57 61 50 26 6 356 348 340 335 334 338 347 355 352 347
52 91 313 349 358 19 59 56 30 59 100 77 4 202 280 295 56 349 335 16 49 15 28 69 76 42 46 332 330 337 18 359 357 25 7 330 4 341 315 350 342 317 7 35 331 315 84 72 70 315 296 302 290 310 14 266 108 68 53 66 76 52 77 98 281 316 356 13 65 137 217 273 284 66 64 48 22 356 344 344 343 336 332 335 340 348 355 351
73 179 323 354 356 42 72 54 345 32 58 271 297 259 294 4 36 349 356 14 26 42 31 36 23 22 44 326 312 353 17 276 278 349 317 293 319 286 314 346 355 342 22 38 326 334 63 57 49 328 302 309 307 330 21 26 66 58 17 42 70 44 81 148 188 193 327 282 314 52 324 269 267 54 50 32 10 350 342 346 347 339 335 338 338 340 348 351
92 214 316 3 7 64 97 82 132 42 334 322 9 355 332 340 53 18 9 353 2 66 67 37 329 7 8 314 7 358 330 4 292 314 332 306 316 336 344 352 5 11 11 6 310 315 32 36 73 36 354 351 348 348 352 356 33 55 327 6 37 1 348 16 94 92 230 216 151 132 239 255 268 32 24 7 359 350 345 349 347 338 338 341 337 336 341 345
52 299 281 4 27 59 105 155 144 129 299 29 39 6 349 354 9 46 40 359 1 115 101 28 326 338 317 338 23 348 342 63 353 307 358 317 299 331 355 349 355 1 342 356 350 359 95 89 110 100 88 61 316 299 300 331 359 9 317 332 346 347 24 55 50 356 268 303 101 152 236 274 312 18 10 353 350 344 342 347 345 338 341 341 335 333 338 343
73 55 305 346 24 52 79 169 107 111 153 126 73 10 42 40 326 295 127 75 20 69 63 15 324 340 358 22 23 333 333 23 15 313 340 321 299 342 343 334 334 327 342 16 19 41 113 55 100 138 152 178 210 236 258 316 322 300 304 311 310 318 83 113 113 226 217 355 311 234 242 279 308 356 2 344 339 339 339 343 343 339 340 339 333 329 337 344
86 98 59 344 358 29 28 10 49 81 142 136 129 207 89 62 337 332 46 52 16 36 45 29 25 23 6 18 12 304 323 341 346 12 337 324 325 332 325 315 321 341 4 21 10 46 99 23 5 155 182 220 252 274 286 310 293 275 293 296 284 278 247 162 194 225 188 51 286 252 242 278 303 345 353 331 328 335 334 337 340 335 332 335 334 332 342 348
63 148 159 101 9 47 37 15 49 74 66 90 134 141 85 65 45 20 346 353 13 25 51 18 11 19 5 352 340 292 333 337 320 330 333 338 356 335 326 322 336 355 26 22 353 68 102 320 243 166 303 292 277 277 278 278 263 257 269 274 277 276 237 205 228 231 191 196 250 262 287 297 302 331 341 324 322 327 326 329 333 328 327 334 336 338 348 351
70 120 285 8 106 174 210 329 83 88 69 60 66 89 111 104 71 334 318 17 3 351 51 94 327 341 341 347 61 356 322 329 300 301 339 346 337 323 317 322 329 8 37 27 357 76 108 233 210 249 316 299 274 271 271 260 261 273 272 268 271 270 247 232 243 235 207 227 249 267 290 292 291 319 330 319 314 313 319 330 338 335 331 332 338 345 350 349
115 140 194 57 72 109 281 339 77 86 51 27 34 28 97 97 59 314 322 78 312 312 26 111 287 307 309 330 108 212 246 182 263 268 319 338 320 316 291 283 292 349 11 19 348 330 8 331 282 259 300 295 284 289 290 260 248 275 287 288 292 284 266 252 250 230 211 244 259 265 275 279 291 345 327 312 307 314 334 347 346 336 329 331 341 348 348 346
106 117 134 110 71 346 338 4 71 90 30 5 96 349 16 67 75 304 291 228 211 220 134 141 272 294 298 149 187 236 238 197 256 254 259 273 264 242 257 262 300 339 344 6 348 337 8 321 316 343 324 281 273 284 295 295 296 293 289 290 289 268 254 251 243 208 195 233 265 270 269 297 334 334 321 310 311 323 344 355 345 329 325 337 346 345 345 345
101 84 93 105 82 318 2 47 56 88 24 283 130 98 20 40 292 331 281 299 283 152 141 147 220 275 317 276 254 241 248 268 259 255 256 250 247 249 254 266 289 293 293 334 348 322 207 251 323 341 293 284 298 294 299 334 1 320 269 254 250 252 250 256 268 249 219 221 267 292 311 328 320 319 329 332 333 337 345 349 334 320 325 341 344 343 344 341